Phnom Penh, Cambodia

7:53 AM ICT on February 24, 2017 (GMT +0700)
Pochentong International

Weather History for VDPP - April, 2014

Change the Weather History Date:

Friday, April 4, 2014

  Actual Average Record
Temperature  
Mean Temperature 84 °F -  
Max Temperature 91 °F 92 °F 100 °F (2013)
Min Temperature 78 °F 78 °F 77 °F (2006)
Cooling Degree Days 20    
Growing Degree Days 34 (Base 50)    
Moisture  
Dew Point 74 °F    
Average Humidity 73    
Maximum Humidity 89    
Minimum Humidity 52    
Precipitation  
Precipitation 0.00 in - - ()
Sea Level Pressure  
Sea Level Pressure 29.80 in    
Wind  
Wind Speed 6 mph ()    
Max Wind Speed 16 mph    
Max Gust Speed -    
Visibility 5.6 miles    
Events Rain , Thunderstorm    
Averages and records for this station are not official NWS values.
T = Trace of Precipitation, MM = Missing Value Source: Averaged Metar Reports

Daily Weather History Graph

Daily Weather History Graph

Search for Another Location

Airport or City:

Trip Planner

Search our weather history database for the weather conditions in past years. The results will help you decide how hot, cold, wet, or windy it might be!

Date:

Astronomy

Apr. 04, 2014 Rise Set
Actual Time 5:55 AM ICT 6:11 PM ICT
Civil Twilight 5:34 AM ICT 6:32 PM ICT
Nautical Twilight 5:09 AM ICT 6:57 PM ICT
Astronomical Twilight 4:45 AM ICT 7:22 PM ICT
Moon 9:21 AM ICT (4/4) 10:18 PM ICT (4/4)
Length of Visible Light 12h 58m
Length of Day
12h 15m
Waxing Crescent, 21% of the Moon is Illuminated
Apr 4
Waxing Crescent
Apr 7
First Quarter
Apr 15
Full
Apr 22
Last Quarter
Apr 29
New

Hourly Weather History & Observations

Time (ICT) Temp. Heat Index Dew Point Humidity Pressure Visibility Wind Dir Wind Speed Gust Speed Precip Events Conditions
12:00 AM 86.0 °F 91.8 °F 71.6 °F 62% 29.80 in 5.6 mi South 8.1 mph - N/A   Partly Cloudy
12:30 AM 86.0 °F 93.4 °F 73.4 °F 66% 29.80 in 5.6 mi SSE 8.1 mph - N/A   Partly Cloudy
1:00 AM 84.2 °F 90.9 °F 73.4 °F 70% 29.77 in 5.6 mi SSE 9.2 mph - N/A   Partly Cloudy
6:00 AM 82.4 °F 88.2 °F 73.4 °F 74% 29.80 in 6.2 mi SE 3.5 mph - N/A   Scattered Clouds
6:30 AM 82.4 °F 89.5 °F 75.2 °F 79% 29.83 in 5.6 mi SSE 4.6 mph - N/A   Scattered Clouds
7:00 AM 82 °F - 76 °F 78% 29.87 in 6 mi SE 4.5 mph - -   Partly Cloudy
7:00 AM 84.2 °F 92.3 °F 75.2 °F 74% 29.83 in 5.6 mi SSE 4.6 mph - N/A   Scattered Clouds
7:30 AM 86.0 °F 95.1 °F 75.2 °F 70% 29.83 in 6.2 mi SSE 6.9 mph - N/A   Scattered Clouds
8:00 AM 86.0 °F 95.1 °F 75.2 °F 70% 29.86 in 6.2 mi SSE 5.8 mph - N/A   Scattered Clouds
8:30 AM 86.0 °F 95.1 °F 75.2 °F 70% 29.86 in 6.2 mi SE 3.5 mph - N/A   Mostly Cloudy
9:00 AM 86.0 °F 95.1 °F 75.2 °F 70% 29.86 in 6.2 mi SE 6.9 mph - N/A   Mostly Cloudy
9:30 AM 87.8 °F 95.6 °F 73.4 °F 62% 29.86 in 6.2 mi SSE 5.8 mph - N/A   Scattered Clouds
11:00 AM 89.6 °F 96.2 °F 71.6 °F 55% 29.86 in 6.2 mi SSW 4.6 mph - N/A   Scattered Clouds
11:30 AM 91.4 °F 98.4 °F 71.6 °F 52% 29.83 in 6.2 mi Variable 3.5 mph - N/A   Scattered Clouds
12:00 PM 91.4 °F 98.4 °F 71.6 °F 52% 29.83 in 6.2 mi ENE 5.8 mph - N/A   Scattered Clouds
1:00 PM 78.8 °F - 75.2 °F 89% 29.83 in 1.2 mi NNE 10.4 mph - N/A Rain , Thunderstorm Heavy Thunderstorms and Rain
1:30 PM 78.8 °F - 75.2 °F 89% 29.80 in 4.3 mi NNE 16.1 mph - N/A Rain , Thunderstorm Light Thunderstorms and Rain
2:00 PM 78.8 °F - 75.2 °F 89% 29.77 in 5.6 mi ENE 9.2 mph - N/A Rain Light Rain
2:30 PM 80.6 °F 86.2 °F 75.2 °F 84% 29.74 in 5.6 mi NNE 9.2 mph - N/A   Scattered Clouds
3:00 PM 82.4 °F 88.2 °F 73.4 °F 74% 29.74 in 6.2 mi NE 4.6 mph - N/A   Scattered Clouds
3:30 PM 84.2 °F 90.9 °F 73.4 °F 70% 29.71 in 6.2 mi NE 4.6 mph - N/A   Scattered Clouds
4:00 PM 86.0 °F 93.4 °F 73.4 °F 66% 29.71 in 6.2 mi NE 3.5 mph - N/A   Scattered Clouds
4:30 PM 84.2 °F 90.9 °F 73.4 °F 70% 29.71 in 5.6 mi NW 2.3 mph - N/A   Scattered Clouds
5:00 PM 84.2 °F 92.3 °F 75.2 °F 74% 29.71 in 5.6 mi West 2.3 mph - N/A   Scattered Clouds
5:30 PM 84.2 °F 92.3 °F 75.2 °F 74% 29.74 in 5.6 mi WSW 4.6 mph - N/A   Scattered Clouds
6:00 PM 84.2 °F 92.3 °F 75.2 °F 74% 29.74 in 5.6 mi West 6.9 mph - N/A   Scattered Clouds
6:30 PM 84.2 °F 92.3 °F 75.2 °F 74% 29.74 in 5.0 mi WNW 3.5 mph - N/A   Scattered Clouds
7:00 PM 84.2 °F 92.3 °F 75.2 °F 74% 29.77 in 5.0 mi West 5.8 mph - N/A   Scattered Clouds
7:30 PM 84.2 °F 92.3 °F 75.2 °F 74% 29.77 in 5.0 mi West 9.2 mph - N/A   Scattered Clouds
8:00 PM 82.4 °F 88.2 °F 73.4 °F 74% 29.77 in 5.0 mi West 8.1 mph - N/A   Scattered Clouds
8:30 PM 82.4 °F 88.2 °F 73.4 °F 74% 29.80 in 5.0 mi WNW 3.5 mph - N/A   Scattered Clouds
9:00 PM 82.4 °F 88.2 °F 73.4 °F 74% 29.80 in 5.6 mi WNW 5.8 mph - N/A   Scattered Clouds
9:30 PM 82.4 °F 88.2 °F 73.4 °F 74% 29.80 in 5.6 mi West 5.8 mph - N/A   Scattered Clouds
10:00 PM 80.6 °F 85.4 °F 73.4 °F 79% 29.80 in 5.6 mi WSW 5.8 mph - N/A   Scattered Clouds
10:30 PM 78.8 °F - 71.6 °F 78% 29.83 in 5.6 mi WSW 6.9 mph - N/A   Scattered Clouds
11:00 PM 78.8 °F - 71.6 °F 78% 29.83 in 5.6 mi West 5.8 mph - N/A   Scattered Clouds
11:30 PM 78.8 °F - 71.6 °F 78% 29.83 in 5.6 mi SSE 9.2 mph - N/A   Scattered Clouds